This is the latest recevied weather packets stored in our database for station/object N5ZP. If no packets are shown the sender has not sent any weather packets the latest 10 day(s).
| Time | Temp. | Humidity | Pressure | Rain* | Wind** | Luminosity | Snow |
|---|---|---|---|---|---|---|---|
| 1777726468 | 13.89° C | 94% | 1018.6 hPa | 0 mm | - | 95 W/m² | - |
| 1777726165 | 13.33° C | 96% | 1018.4 hPa | 0 mm | - | 84 W/m² | - |
| 1777725862 | 13.33° C | 97% | 1018.5 hPa | 0 mm | - | 73 W/m² | - |
| 1777725560 | 12.78° C | 97% | 1018.6 hPa | 0 mm | - | 65 W/m² | - |
| 1777725256 | 12.78° C | 97% | 1018.4 hPa | 0 mm | - | 56 W/m² | - |
| 1777724954 | 12.22° C | 97% | 1018.5 hPa | 0 mm | - | 48 W/m² | - |
| 1777724650 | 11.67° C | 97% | 1018.4 hPa | 0 mm | - | 41 W/m² | - |
| 1777724348 | 11.11° C | 97% | 1018 hPa | 0 mm | - | 34 W/m² | - |
| 1777724045 | 10° C | 97% | 1018 hPa | 0 mm | - | 27 W/m² | - |
| 1777723742 | 9.44° C | 97% | 1017.8 hPa | 0 mm | - | 21 W/m² | - |
| 1777723439 | 8.89° C | 97% | 1017.8 hPa | 0 mm | - | 16 W/m² | - |
| 1777723136 | 8.89° C | 97% | 1017.9 hPa | 0 mm | - | 13 W/m² | - |
| 1777722833 | 8.89° C | 97% | 1017.8 hPa | 0 mm | - | 9 W/m² | - |
| 1777722529 | 8.89° C | 97% | 1017.5 hPa | 0 mm | - | 6 W/m² | - |
| 1777722226 | 8.89° C | 97% | 1017.4 hPa | 0 mm | - | 4 W/m² | - |
| 1777721923 | 8.89° C | 97% | 1017.5 hPa | 0 mm | - | 2 W/m² | - |
| 1777721620 | 8.33° C | 97% | 1017.3 hPa | 0 mm | - | 1 W/m² | - |
| 1777721319 | 8.33° C | 97% | 1017.2 hPa | 0 mm | - | 0 W/m² | - |
| 1777721015 | 7.78° C | 97% | 1017.2 hPa | 0 mm | - | 0 W/m² | - |
| 1777720713 | 7.78° C | 97% | 1017.1 hPa | 0 mm | - | 0 W/m² | - |
| 1777720410 | 7.78° C | 97% | 1017.2 hPa | 0 mm | - | 0 W/m² | - |
| 1777720108 | 7.78° C | 97% | 1017 hPa | 0 mm | - | 0 W/m² | - |
| 1777719806 | 7.78° C | 97% | 1017 hPa | 0 mm | - | 0 W/m² | - |
| 1777719503 | 8.33° C | 97% | 1016.9 hPa | 0 mm | - | 0 W/m² | - |
| 1777719200 | 8.33° C | 97% | 1016.6 hPa | 0 mm | - | 0 W/m² | - |
* Rain latest hour (hover to see other rain measurements)
** Current wind speed in m/s (hover to see current wind gust speed)